This is the latest recevied weather packets stored in our database for station/object SP3SWJ-13. If no packets are shown the sender has not sent any weather packets the latest 10 day(s).
| Time | Temp. | Humidity | Pressure | Rain* | Wind** | Luminosity | Snow |
|---|---|---|---|---|---|---|---|
| 1777734748 | 26.11° C | 26% | 1010.3 hPa | - | - | 282 W/m² | - |
| 1777734447 | 26.11° C | 26% | 1010.4 hPa | - | - | 294 W/m² | - |
| 1777734146 | 25.56° C | 27% | 1010.5 hPa | - | - | 308 W/m² | - |
| 1777733845 | 26.11° C | 28% | 1010.5 hPa | - | - | 319 W/m² | - |
| 1777733544 | 25° C | 28% | 1010.5 hPa | - | - | 329 W/m² | - |
| 1777733243 | 25° C | 29% | 1010.5 hPa | - | - | 344 W/m² | - |
| 1777732943 | 26.11° C | 27% | 1010.6 hPa | - | - | 358 W/m² | - |
| 1777732641 | 25.56° C | 27% | 1010.8 hPa | - | - | 374 W/m² | - |
| 1777732340 | 27.22° C | 26% | 1010.8 hPa | - | - | 386 W/m² | - |
| 1777732040 | 27.22° C | 26% | 1010.8 hPa | - | - | 400 W/m² | - |
| 1777731739 | 26.67° C | 26% | 1010.8 hPa | - | - | 422 W/m² | - |
| 1777731438 | 25.56° C | 28% | 1010.9 hPa | - | - | 431 W/m² | - |
| 1777731137 | 25.56° C | 28% | 1011 hPa | - | - | 444 W/m² | - |
| 1777730836 | 25.56° C | 27% | 1011 hPa | - | - | 459 W/m² | - |
| 1777730536 | 25.56° C | 27% | 1011.1 hPa | - | - | 473 W/m² | - |
| 1777730235 | 26.67° C | 28% | 1011.1 hPa | - | - | 480 W/m² | - |
| 1777729934 | 25.56° C | 28% | 1011.2 hPa | - | - | 489 W/m² | - |
| 1777729633 | 25.56° C | 28% | 1011.2 hPa | - | - | 495 W/m² | - |
| 1777729332 | 25° C | 29% | 1011.3 hPa | - | - | 502 W/m² | - |
| 1777729031 | 25° C | 27% | 1011.3 hPa | - | - | 513 W/m² | - |
| 1777728731 | 25° C | 27% | 1011.3 hPa | - | - | 523 W/m² | - |
| 1777728429 | 26.11° C | 27% | 1011.5 hPa | - | - | 531 W/m² | - |
| 1777728128 | 25.56° C | 28% | 1011.5 hPa | - | - | 541 W/m² | - |
| 1777727828 | 24.44° C | 29% | 1011.6 hPa | - | - | 554 W/m² | - |
| 1777727526 | 24.44° C | 28% | 1011.6 hPa | - | - | 564 W/m² | - |
* Rain since midnight (hover to see other rain measurements)
** Current wind speed in m/s (hover to see current wind gust speed)